Wind_Speed
4 6 5 3 5 5 2 2 4 6 5 1 12 5 7 10 3 7 21 21 21 22 21 20 20 19 20 20 19 18 17 19 18 19 21 21 21 19 16 13 12 12 11 8 8 7 6 6 6
5 5 3 3 5 4 3 3 4 2 7 21 12 8 8 5 8 29 28 24 23 23 20 20 18 18 18 17 18 17 16 16 16 17 18 18 17 14 12 12 12 11 10 6 5 5 4 4 3
5 5 5 4 3 3 3 3 7 13 10 11 7 10 4 3 19 33 28 27 23 23 21 19 17 16 15 16 15 16 14 13 12 13 14 14 13 12 11 11 11 10 8 7 5 5 4 4 3
4 1 1 5 3 4 4 5 7 9 13 6 14 8 6 5 31 23 28 26 24 23 21 19 16 15 15 14 13 13 13 13 12 11 11 11 11 10 10 10 9 8 7 7 6 5 5 4 3
2 1 4 4 4 3 5 8 2 4 6 8 4 4 9 19 15 28 28 25 24 24 21 17 14 13 12 12 12 12 12 11 11 11 9 10 10 9 8 7 7 6 5 5 5 7 7 6 7
2 2 5 3 4 3 3 8 8 7 10 12 12 10 6 6 22 29 25 23 22 22 18 14 12 10 11 10 11 11 10 10 11 10 8 9 9 10 8 6 6 4 4 5 6 6 7 8 9
6 4 3 3 2 2 3 7 5 9 12 7 14 5 8 14 26 25 24 22 21 19 17 14 11 10 9 8 9 10 10 10 10 9 8 8 8 7 7 6 6 5 5 4 6 6 5 7 9
6 4 3 2 4 2 8 5 14 10 7 13 14 7 9 25 28 25 24 22 19 17 15 12 10 8 8 8 9 8 9 8 9 8 7 6 7 7 7 6 5 5 4 3 3 5 5 4 6
5 4 2 1 4 4 13 5 5 6 18 5 3 16 28 31 27 26 24 22 19 17 14 11 10 9 8 8 9 8 8 8 8 7 7 6 7 5 6 6 5 5 4 3 3 4 4 5 5
5 3 2 1 2 3 10 13 11 7 10 6 14 20 29 29 26 25 25 23 21 18 15 13 11 9 8 8 9 9 8 9 9 9 8 7 7 7 5 5 3 1 1 2 3 4 4 5 6
3 2 1 3 0 4 7 10 7 20 2 8 27 29 31 30 26 24 23 21 18 16 14 13 12 11 9 8 8 8 9 9 9 9 9 7 6 4 3 1 2 2 3 2 3 3 2 4 7
3 3 3 3 3 6 3 3 7 22 6 14 31 31 33 31 28 25 21 19 18 17 14 13 13 11 10 10 9 9 8 9 9 9 6 4 3 2 2 1 1 1 2 3 2 2 2 1 6
4 2 3 8 3 5 4 2 4 9 9 20 32 31 30 28 25 22 19 16 17 17 16 17 15 15 13 12 10 10 9 9 8 7 5 3 2 1 1 0 2 3 3 4 4 3 2 1 3
2 3 7 11 7 3 5 1 6 9 22 28 32 31 28 26 23 21 20 18 19 21 18 20 16 16 14 11 10 8 8 7 6 5 4 3 2 2 3 2 3 2 2 2 2 5 3 3 2
6 4 8 2 1 3 3 3 3 23 27 30 32 31 28 26 25 24 22 21 21 21 20 20 17 16 15 12 9 8 8 6 5 5 3 3 1 2 1 0 0 1 2 1 2 2 2 2 3
4 3 2 3 4 4 1 4 3 23 27 26 30 31 29 28 26 24 22 21 21 21 21 20 19 15 14 12 9 9 9 9 7 6 5 3 2 1 2 2 0 1 1 2 3 1 4 5 2
4 2 3 5 8 3 1 1 9 24 24 24 28 31 31 29 29 27 25 25 23 22 22 21 20 17 15 13 10 10 9 7 6 5 7 6 2 2 1 1 1 3 1 1 0 3 3 5 7
4 2 3 4 4 2 1 1 7 25 25 24 27 28 33 33 32 25 24 28 28 25 21 22 20 17 17 15 14 13 10 8 5 5 5 7 4 2 2 1 4 3 3 4 3 6 5 3 5
2 4 4 4 5 5 6 3 8 21 20 20 29 32 33 34 29 26 25 27 31 28 27 25 24 20 19 19 18 17 14 12 7 5 3 6 2 5 2 1 2 4 2 4 6 3 3 3 6
3 1 4 3 2 1 1 8 8 14 25 31 31 34 35 33 31 28 27 27 27 31 28 25 25 23 20 17 13 18 18 14 10 9 6 5 5 2 3 3 3 5 5 5 4 6 5 5 6
2 4 3 2 2 2 4 6 4 5 12 23 27 35 36 37 35 32 29 28 26 30 30 26 24 25 22 17 15 21 22 19 14 9 7 6 3 2 4 3 4 4 5 4 1 9 8 6 8
3 7 5 4 3 2 3 5 4 1 6 9 24 29 35 37 34 33 30 28 28 28 30 27 25 25 24 21 18 17 19 19 14 8 7 8 5 3 3 3 3 4 4 3 1 8 9 9 8
8 5 1 3 3 3 2 2 7 2 6 11 20 31 37 38 35 32 30 30 25 26 29 30 27 26 26 24 21 19 17 17 16 12 7 6 7 6 6 5 4 3 3 4 3 4 8 10 9
5 6 8 4 3 2 3 5 9 3 3 5 13 26 34 36 35 34 29 25 26 27 27 30 30 26 28 26 24 22 19 17 17 15 11 7 9 10 9 8 7 6 3 5 5 5 5 8 10
6 6 3 4 3 6 3 3 10 8 5 6 11 25 33 30 28 32 34 32 28 30 29 28 29 28 27 27 25 23 20 17 16 15 12 9 8 9 10 10 10 6 6 6 5 4 3 5 8
5 7 6 5 5 4 1 6 7 4 13 5 6 8 23 30 29 29 32 35 32 30 27 32 28 27 28 26 24 23 22 20 18 16 13 10 9 5 8 8 9 8 9 7 6 4 3 4 4
5 3 5 7 4 2 3 8 9 5 6 12 9 6 13 19 29 29 27 32 35 33 27 27 27 29 29 30 25 23 23 22 20 17 16 12 11 9 9 9 9 9 10 8 7 6 5 4 4
4 6 3 3 5 4 4 6 6 5 6 8 10 8 8 17 22 26 26 24 32 31 29 27 28 26 27 31 27 25 22 23 22 20 19 17 15 14 13 12 10 10 11 10 8 8 7 5 5
2 2 6 5 3 6 3 7 6 8 3 6 5 3 4 7 21 25 22 20 23 29 28 26 26 32 32 24 30 24 26 23 24 23 22 21 19 17 16 15 13 12 13 11 11 10 9 8 6
4 7 6 5 5 2 4 6 4 7 7 7 3 5 5 4 5 19 20 19 20 24 30 28 25 30 23 7 25 33 26 28 25 25 23 24 23 21 20 18 17 16 15 15 14 12 11 11 10
Wind_Direction
120 87 92 86 55 65 31 24 142 108 163 131 162 104 105 42 29 139 148 151 137 130 124 117 115 117 121 126 128 129 135 128 132 139 143 147 145 147 152 162 159 152 153 137 131 133 132 116 104
97 68 64 89 80 71 330 347 95 112 126 121 89 75 54 65 98 133 149 146 141 134 132 128 127 124 122 123 125 129 135 130 136 142 142 155 155 159 165 169 170 163 158 165 168 161 160 128 117
76 41 346 80 106 131 143 63 119 124 124 126 107 79 56 56 137 142 150 147 148 141 137 132 125 125 132 128 129 131 129 134 144 146 151 159 160 164 164 168 174 179 177 178 187 182 170 147 176
60 86 273 75 61 19 105 154 137 107 86 89 117 77 75 134 142 151 151 151 145 139 136 127 129 134 129 127 136 139 138 137 139 147 158 159 162 168 176 175 187 202 216 205 202 172 182 188 162
152 162 50 67 42 45 69 129 21 80 91 94 108 87 100 136 155 153 153 151 148 144 141 138 135 129 127 127 132 136 134 138 144 147 150 150 159 160 168 171 180 182 197 191 187 180 185 180 180
119 70 50 32 47 61 61 109 85 71 103 113 89 98 109 158 158 156 155 154 154 149 148 144 145 139 131 129 135 135 135 135 141 135 144 137 144 148 146 157 149 149 154 146 150 163 171 167 175
108 75 139 101 65 78 143 125 79 106 107 91 130 85 130 155 161 159 160 159 160 160 160 159 155 148 137 137 134 134 136 142 133 134 140 141 144 143 139 145 148 147 150 161 133 144 168 173 169
81 86 51 110 176 165 147 106 128 99 71 117 118 154 164 163 166 166 168 169 169 169 170 167 166 159 145 147 140 142 141 141 138 140 140 143 143 134 136 137 137 138 142 172 162 136 159 179 184
78 60 55 178 149 153 156 122 171 111 137 105 68 153 158 160 170 170 173 179 182 181 182 177 175 171 158 148 144 150 145 144 133 138 141 134 129 128 130 129 133 121 113 150 172 167 174 196 216
70 89 202 176 39 124 173 144 155 120 139 75 103 141 157 163 170 174 180 185 189 192 188 184 178 175 170 160 152 151 152 142 134 143 155 140 123 118 116 115 109 78 162 150 155 199 214 208 228
84 126 131 20 42 71 132 135 151 137 226 178 149 150 164 168 175 183 189 195 192 192 191 179 174 177 169 162 161 157 147 150 150 154 149 133 133 126 115 69 38 31 47 221 168 230 40 214 223
50 72 115 89 19 46 25 139 140 157 178 184 162 160 166 174 178 182 188 194 191 191 189 170 168 164 151 154 148 146 150 151 150 148 149 151 156 137 117 54 36 36 88 92 108 247 287 231 219
29 351 49 359 7 3 31 83 185 158 143 166 164 165 169 176 182 186 192 194 189 184 181 170 161 151 143 139 145 146 141 147 143 144 130 128 138 66 102 120 108 103 103 114 89 85 93 151 179
320 311 8 9 23 314 350 125 107 155 156 162 169 172 177 182 183 185 191 185 179 173 163 169 164 163 159 155 153 143 147 154 148 138 155 156 125 55 21 210 154 129 133 129 74 74 72 117 167
109 47 351 341 112 276 302 27 344 151 161 162 175 180 185 191 193 196 190 187 181 177 167 167 169 173 175 175 172 183 184 195 182 170 195 228 176 44 301 174 230 159 138 3 325 48 48 1 264
58 40 354 271 105 268 190 239 169 159 160 160 174 186 195 198 204 205 204 200 196 190 186 179 180 178 182 184 180 185 181 185 205 224 239 279 272 307 251 217 306 176 132 82 68 86 31 40 31
12 218 234 308 187 280 27 245 167 176 170 165 182 190 198 206 210 214 212 211 206 202 199 195 194 193 195 196 185 192 205 207 225 248 250 250 307 302 241 292 263 242 241 256 206 311 330 356 342
207 206 268 241 191 229 281 254 154 180 183 186 190 191 203 209 215 212 217 218 217 209 208 209 206 204 204 207 201 203 212 217 246 242 271 229 251 247 287 300 302 213 228 244 281 292 297 329 344
147 170 223 249 169 150 232 183 188 186 186 193 202 206 209 211 221 221 221 220 220 219 216 213 211 208 206 214 211 216 223 230 243 240 279 205 285 249 257 312 285 223 262 268 291 275 152 137 85
280 295 286 289 88 138 84 260 219 187 203 199 200 207 213 217 218 222 223 221 225 220 217 217 216 211 207 217 221 227 229 236 240 239 248 236 278 233 243 275 257 255 273 294 326 174 173 155 144
247 223 248 185 65 200 314 276 215 212 205 212 214 214 216 217 218 224 223 226 229 224 220 221 221 214 213 216 220 227 229 235 242 232 227 258 254 255 251 264 276 268 257 290 273 177 187 204 178
254 188 250 100 81 222 68 283 288 162 209 205 215 216 222 223 223 225 227 226 231 232 226 226 228 222 220 217 217 223 229 233 238 243 266 234 230 260 257 287 280 265 255 257 226 186 203 207 214
223 155 256 104 99 28 346 31 271 206 224 227 212 216 223 229 227 224 226 231 232 230 225 226 231 227 223 221 223 228 230 235 237 238 255 232 245 254 257 268 283 260 243 234 211 196 209 211 216
131 77 46 56 85 349 194 134 287 250 220 268 203 213 221 227 229 231 229 230 231 223 221 230 232 229 229 227 228 230 230 234 233 230 236 248 255 251 249 256 258 248 271 236 249 255 236 234 220
84 69 8 31 17 225 314 113 239 296 266 229 213 207 217 221 221 229 224 222 223 220 221 226 234 234 231 233 231 234 232 234 235 238 244 254 279 251 240 251 255 260 276 259 264 265 278 261 244
175 151 151 199 184 235 144 239 256 279 329 327 251 228 223 222 222 224 225 223 223 223 225 230 235 235 229 233 235 234 234 234 237 242 247 247 253 287 244 261 259 259 269 269 261 266 256 274 238
186 147 172 100 7 58 231 292 315 339 359 22 42 204 211 219 218 215 225 221 224 227 229 233 243 241 234 235 236 235 235 235 237 237 242 244 248 258 250 254 257 248 254 259 251 260 251 284 285
142 157 85 17 131 215 284 287 239 323 312 341 11 0 265 230 219 216 221 224 225 229 234 236 243 245 243 237 242 241 239 240 242 243 245 249 250 250 251 251 258 250 250 253 251 251 247 258 276
114 171 54 115 120 161 201 262 213 239 268 275 299 47 354 255 235 220 215 218 229 229 232 235 240 240 236 246 248 260 247 245 247 246 246 247 250 251 253 253 256 252 250 250 250 247 244 247 253
147 172 141 128 225 99 150 274 208 246 244 241 248 27 27 334 244 218 207 216 227 235 236 241 247 244 205 188 266 253 260 250 251 252 251 249 248 250 254 255 254 250 243 247 248 249 252 255 255
Height
1492 1491 1492 1492 1504 1506 1517 1511 1504 1511 1513 1512 1514 1515 1519 1522 1522 1537 1536 1538 1539 1540 1543 1545 1548 1549 1551 1553 1553 1556 1558 1558 1561 1562 1563 1564 1565 1567 1570 1571 1572 1573 1574 1574 1574 1575 1576 1577 1578
1493 1492 1493 1493 1514 1528 1523 1506 1508 1508 1509 1511 1516 1518 1520 1527 1526 1529 1535 1539 1542 1543 1546 1548 1550 1552 1554 1556 1556 1558 1561 1561 1563 1565 1565 1567 1567 1569 1571 1572 1574 1574 1575 1576 1575 1576 1577 1579 1579
1492 1493 1496 1498 1515 1524 1521 1508 1509 1509 1510 1512 1517 1520 1524 1530 1530 1533 1537 1540 1544 1546 1549 1551 1553 1555 1557 1558 1560 1561 1563 1564 1566 1567 1568 1569 1570 1571 1572 1573 1574 1575 1575 1576 1576 1576 1578 1580 1581
1494 1497 1499 1508 1510 1507 1509 1509 1509 1510 1512 1514 1518 1523 1528 1531 1534 1536 1540 1543 1546 1549 1551 1554 1556 1558 1559 1561 1563 1564 1565 1566 1567 1568 1570 1571 1571 1572 1574 1574 1575 1576 1576 1576 1577 1577 1578 1581 1581
1495 1495 1506 1512 1512 1508 1508 1510 1510 1511 1514 1517 1518 1528 1532 1537 1538 1539 1543 1546 1549 1551 1554 1557 1559 1560 1562 1563 1565 1566 1567 1568 1569 1570 1571 1571 1573 1574 1574 1575 1575 1576 1577 1578 1577 1578 1578 1580 1581
1494 1496 1517 1526 1517 1512 1511 1512 1512 1515 1517 1520 1523 1528 1537 1539 1541 1543 1546 1548 1551 1553 1556 1558 1561 1563 1564 1565 1566 1568 1569 1570 1570 1571 1573 1573 1574 1574 1575 1576 1577 1578 1578 1578 1577 1578 1578 1580 1582
1495 1502 1516 1515 1519 1515 1513 1513 1516 1516 1519 1522 1524 1531 1537 1539 1543 1546 1549 1551 1554 1556 1558 1560 1562 1564 1565 1567 1567 1569 1570 1572 1572 1573 1574 1575 1575 1576 1576 1577 1577 1578 1578 1578 1578 1579 1579 1581 1583
1495 1501 1514 1515 1519 1518 1512 1514 1516 1516 1521 1524 1526 1531 1536 1538 1543 1546 1550 1553 1556 1558 1561 1562 1564 1565 1566 1568 1568 1570 1571 1573 1574 1574 1576 1576 1577 1576 1576 1578 1578 1578 1578 1579 1578 1580 1580 1581 1583
1497 1511 1520 1514 1513 1513 1512 1513 1517 1518 1521 1525 1527 1527 1532 1537 1543 1547 1550 1553 1556 1559 1562 1564 1565 1566 1567 1569 1569 1571 1572 1574 1575 1576 1578 1578 1577 1578 1578 1578 1579 1579 1579 1580 1580 1580 1580 1581 1583
1500 1516 1513 1508 1509 1509 1511 1513 1516 1521 1523 1526 1527 1530 1535 1540 1544 1547 1549 1552 1555 1559 1562 1565 1566 1568 1568 1570 1570 1572 1573 1574 1576 1577 1579 1579 1578 1578 1579 1579 1579 1578 1577 1580 1580 1580 1580 1581 1582
1504 1512 1509 1510 1508 1510 1510 1514 1516 1520 1525 1525 1526 1530 1537 1541 1546 1549 1551 1553 1556 1561 1563 1565 1567 1568 1569 1571 1571 1573 1574 1575 1577 1578 1579 1579 1579 1580 1580 1581 1581 1580 1579 1580 1580 1579 1580 1581 1582
1507 1506 1508 1511 1511 1512 1514 1515 1515 1516 1520 1523 1527 1530 1536 1541 1545 1547 1551 1554 1557 1560 1563 1566 1568 1569 1570 1571 1573 1574 1575 1576 1578 1578 1579 1580 1580 1580 1581 1581 1581 1581 1580 1581 1580 1581 1580 1580 1581
1506 1507 1509 1509 1511 1514 1513 1514 1514 1519 1520 1524 1529 1534 1538 1542 1546 1550 1552 1555 1557 1559 1562 1565 1568 1570 1572 1573 1573 1575 1576 1578 1579 1580 1581 1581 1581 1581 1580 1581 1582 1581 1581 1581 1581 1581 1580 1580 1580
1508 1507 1509 1509 1513 1514 1515 1514 1512 1519 1520 1525 1530 1534 1538 1542 1546 1549 1552 1554 1556 1559 1562 1565 1568 1570 1572 1573 1574 1576 1577 1579 1580 1581 1582 1582 1581 1581 1581 1581 1582 1582 1582 1582 1582 1582 1581 1581 1581
1510 1513 1511 1512 1513 1515 1516 1516 1515 1516 1521 1525 1531 1535 1538 1541 1546 1548 1550 1552 1555 1559 1562 1564 1568 1570 1571 1572 1574 1576 1578 1579 1581 1582 1583 1582 1582 1581 1582 1582 1582 1582 1583 1583 1583 1583 1582 1581 1582
1516 1518 1528 1513 1513 1514 1515 1525 1518 1519 1521 1527 1531 1536 1539 1540 1542 1546 1549 1552 1555 1558 1561 1565 1566 1569 1571 1572 1574 1576 1577 1579 1581 1582 1582 1582 1582 1582 1582 1582 1582 1583 1584 1584 1584 1583 1583 1582 1582
1524 1536 1529 1518 1514 1514 1515 1520 1518 1520 1522 1526 1530 1533 1536 1540 1541 1544 1547 1551 1553 1556 1560 1563 1566 1568 1570 1572 1574 1576 1578 1580 1581 1581 1581 1581 1582 1582 1582 1582 1583 1584 1584 1584 1585 1584 1583 1583 1581
1530 1532 1524 1523 1514 1515 1517 1517 1518 1519 1522 1523 1527 1531 1534 1537 1537 1540 1544 1548 1552 1555 1559 1563 1565 1567 1570 1572 1573 1575 1577 1579 1581 1581 1581 1581 1581 1583 1582 1582 1583 1583 1584 1585 1585 1584 1584 1584 1582
1512 1521 1523 1514 1509 1513 1516 1514 1515 1516 1520 1523 1523 1526 1530 1531 1535 1538 1541 1545 1549 1553 1556 1560 1562 1565 1568 1569 1571 1573 1576 1578 1580 1581 1581 1581 1581 1582 1582 1582 1583 1584 1584 1584 1584 1583 1584 1584 1584
1511 1518 1522 1513 1510 1515 1515 1517 1509 1511 1510 1513 1517 1520 1523 1528 1532 1534 1538 1541 1544 1549 1553 1556 1559 1563 1565 1567 1568 1571 1575 1577 1579 1579 1580 1579 1580 1581 1581 1582 1582 1583 1583 1583 1582 1583 1583 1584 1585
1515 1518 1517 1519 1514 1514 1518 1518 1509 1507 1509 1513 1514 1515 1518 1522 1526 1530 1533 1536 1541 1545 1549 1552 1555 1559 1563 1566 1568 1570 1573 1575 1576 1578 1579 1579 1580 1580 1581 1581 1581 1581 1582 1582 1582 1582 1583 1584 1586
1521 1505 1508 1516 1524 1539 1522 1545 1514 1507 1508 1506 1507 1511 1513 1516 1521 1527 1531 1533 1537 1541 1546 1551 1553 1557 1560 1564 1566 1567 1570 1572 1575 1576 1577 1578 1579 1580 1580 1581 1581 1581 1581 1581 1581 1581 1582 1584 1585
1511 1503 1511 1518 1529 1529 1526 1543 1517 1508 1508 1501 1499 1501 1506 1511 1516 1520 1527 1529 1533 1538 1542 1547 1551 1554 1557 1561 1564 1567 1568 1571 1573 1575 1576 1577 1579 1579 1579 1580 1580 1580 1580 1580 1580 1581 1582 1582 1583
1502 1511 1523 1530 1536 1555 1533 1538 1522 1509 1498 1493 1493 1496 1500 1504 1510 1516 1522 1527 1531 1535 1540 1544 1548 1551 1555 1558 1561 1564 1567 1569 1570 1573 1575 1577 1577 1578 1578 1579 1579 1579 1579 1579 1579 1580 1581 1581 1581
1508 1527 1558 1558 1563 1559 1537 1539 1519 1492 1488 1489 1489 1492 1496 1501 1507 1510 1516 1520 1525 1530 1534 1540 1544 1548 1551 1555 1558 1561 1564 1566 1568 1571 1573 1574 1575 1575 1577 1578 1578 1578 1577 1578 1578 1579 1579 1580 1580
1510 1517 1549 1557 1571 1551 1542 1541 1513 1489 1488 1487 1490 1492 1494 1498 1503 1505 1509 1514 1519 1525 1529 1534 1537 1542 1547 1550 1553 1557 1560 1563 1565 1569 1571 1572 1574 1575 1576 1577 1577 1577 1577 1577 1577 1578 1578 1578 1578
1510 1519 1513 1547 1555 1552 1542 1519 1495 1489 1487 1483 1487 1489 1490 1492 1495 1499 1505 1509 1514 1520 1524 1528 1532 1537 1542 1548 1549 1553 1556 1559 1562 1565 1569 1570 1572 1573 1574 1575 1575 1575 1576 1575 1575 1576 1577 1577 1577
1493 1500 1526 1539 1556 1553 1544 1533 1525 1497 1491 1488 1485 1486 1488 1488 1491 1495 1500 1505 1510 1514 1520 1524 1527 1531 1538 1546 1549 1551 1552 1556 1559 1562 1565 1567 1569 1570 1571 1572 1573 1573 1573 1574 1574 1574 1575 1575 1575
1504 1510 1522 1526 1541 1551 1556 1538 1501 1496 1492 1491 1486 1482 1482 1485 1488 1490 1498 1502 1508 1514 1516 1519 1523 1527 1533 1544 1549 1549 1550 1552 1555 1558 1561 1563 1566 1567 1568 1570 1571 1571 1571 1571 1571 1572 1572 1573 1573
1489 1497 1506 1532 1533 1545 1544 1528 1489 1490 1491 1490 1488 1486 1483 1483 1486 1490 1496 1500 1504 1509 1514 1517 1520 1523 1531 1538 1541 1543 1546 1549 1551 1554 1556 1559 1562 1563 1566 1567 1567 1567 1568 1568 1569 1569 1570 1571 1571